Location: *
(45.5224°N, 122.7471°W)
Time: 03:50:38
(UTC+00:00)

Lacrosse 5 rocket - Pass Details

Date: 09 April 2020
Orbit: 458 x 638 km, 57.0° (Epoch: 24 May)

Event Time Altitude Azimuth Distance (km) Brightness Sun altitude
Rises 12:45:52 0° 310° (NW) 2,612 4.5 -9.1°
Reaches altitude 10° 12:48:27 10° 328° (NNW) 1,760 3.8 -8.7°
Maximum altitude 12:51:27 20° 17° (NNE) 1,281 3.7 -8.2°
Drops below altitude 10° 12:54:34 10° 66° (ENE) 1,842 5.8 -7.7°
Sets 12:57:21 0° 83° (E) 2,776 6.9 -7.2°
